Location: Newark
(50.0306°N, 2.3272°E)
Time: 22:45:28
(UTC+00:00)

Vanguard 1 - Pass Details

Date: 15 December 2019
Orbit: 651 x 3832 km, 34.2° (Epoch: 21 January)

Event Time Altitude Azimuth Distance (km) Brightness Sun altitude
Exits shadow 00:22:31 18° 121° (ESE) 6,192 13.9 -62.2°
Drops below altitude 10° 00:32:24 10° 96° (E) 6,882 14.4 -61.7°
Sets 00:39:58 0° 82° (E) 7,678 14.8 -61.2°
